Meteo Giornale » Osservazioni meteo Stati Uniti (USA) » Port Isabel-Cameron
ore: 00:53 - Osservazioni Meteo Port Isabel-Cameron
Lat. 26° 9' N Lon. 97° 20' W Alt. 5 metri s.l.m.
28 °C
Sereno
Temp. 24 Ore
26 °C
35 °C
Sud
7.4 Km/h
Dew point 25 °C
Umidità 83 %
Visibilità 10 Km
Il sole sorge alle ore 07:09
Il sole tramonta alle ore 19:49
| Data e Ora | Cielo e Fenomeni | T °C | DP °C | Um. % | Pres. hPa | Vis. km | Vento km/h | |
|---|---|---|---|---|---|---|---|---|
| Oggi h: 00:53 | Sereno | 28 | 25 | 83 | 1015 | 10 | S 7.4 | |
| Ieri h: 23:53 | Sereno | 28 | 25 | 83 | 1015 | 10 | S 11.1 | |
| Ieri h: 22:53 | Sereno | 28 | 25 | 83 | 1015 | 10 | SE 13 | |
| Ieri h: 21:53 | Sereno | 29 | 25 | 79 | 1014 | 10 | SE 18.5 | |
| Ieri h: 21:32 | Nuvoloso | 29 | 25 | 79 | 1014 | 10 | SE 14.8 | |
| Ieri h: 21:13 | Molto Nuvoloso | 29 | 25 | 79 | 1014 | 10 | S/SE 18.5 | |
| Ieri h: 20:53 | Sereno | 29 | 25 | 79 | 1013 | 10 | SE 13 | |
| Ieri h: 19:53 | Sereno | 30 | 24 | 70 | 1012 | 10 | SE 25.9 | |
| Ieri h: 18:53 | Sereno | 31 | 25 | 70 | 1012 | 10 | E/SE 25.9 | |
| Ieri h: 17:53 | Sereno | 32 | 26 | 70 | 1012 | 10 | E/SE 29.6 | |
| Ieri h: 16:53 | Sereno | 33 | 26 | 66 | 1012 | 10 | E/SE 29.6 | |
| Ieri h: 15:53 | Sereno | 33 | 25 | 62 | 1013 | 10 | E/SE 27.8 | |
| Ieri h: 14:53 | Sereno | 34 | 25 | 59 | 1014 | 10 | E/SE 31.5 | |
| Ieri h: 13:53 | Pioggia | 35 | 24 | 53 | 1014 | 10 | E/SE 37 | |
| Ieri h: 12:53 | Nuvoloso | 35 | 24 | 53 | 1014 | 10 | SE 29.6 | |
| Ieri h: 11:53 | Sereno | 35 | 22 | 47 | 1015 | 10 | S/SE 14.8 | |
| Ieri h: 10:53 | Sereno | 33 | 23 | 55 | 1015 | 10 | S 22.2 | |
| Ieri h: 09:53 | Sereno | 31 | 24 | 66 | 1015 | 10 | S 18.5 | |
| Ieri h: 08:53 | Sereno | 29 | 26 | 83 | 1015 | 10 | S 14.8 | |
| Ieri h: 07:53 | Sereno | 27 | 25 | 88 | 1014 | 13 | S/SE 7.4 | |
| Ieri h: 06:53 | Sereno | 26 | 25 | 94 | 1014 | 14 | SE 7.4 | |
| Ieri h: 05:53 | Sereno | 26 | 25 | 94 | 1013 | 10 | S 7.4 | |
| Ieri h: 04:53 | Poco Nuvoloso | 27 | 25 | 88 | 1013 | 10 | SE 7.4 | |
| Ieri h: 03:53 | Sereno | 27 | 25 | 88 | 1014 | 10 | N 5.5 | |
| Ieri h: 02:53 | Sereno | 28 | 25 | 83 | 1014 | 10 | S/SE 9.3 | |
| Ieri h: 01:53 | Sereno | 28 | 25 | 83 | 1014 | 10 | S 13 | |



